BEIJING 1 (TSINGHUA) 1 28890U 05043A 24263.85149294 .00001305 00000-0 26610-3 0 9995 2 28890 98.2115 26.0880 0015979 108.8278 251.4658 14.62574347 7735 HJ-1A 1 33320U 08041A 24263.86742210 .00004001 00000-0 52478-3 0 9995 2 33320 97.6344 266.2572 0021774 64.7843 295.5624 14.80677718864368 HJ-1B 1 33321U 08041B 24263.85748035 .00002910 00000-0 37914-3 0 9991 2 33321 97.6281 270.7542 0039779 105.9670 254.5931 14.80768677864389 YAOGAN 4 1 33446U 08061A 24263.87439680 .00003147 00000-0 41782-3 0 9997 2 33446 97.8811 193.9941 0014354 345.2312 14.8479 14.80432627851564 DEIMOS 1 1 35681U 09041A 24263.79203052 .00001856 00000-0 29176-3 0 9990 2 35681 97.6847 80.6866 0002735 84.8822 275.2699 14.73654379813246 DMC 2 1 35683U 09041C 24263.86369611 .00002809 00000-0 43650-3 0 9996 2 35683 97.7955 47.7085 0001322 100.5274 259.6084 14.73807860812950 RISAT 1 1 38248U 12017A 24263.59462285 .00021430 00000-0 79404-3 0 9991 2 38248 97.5199 281.5446 0000422 196.7587 163.3638 15.27657927683994 DMC 3-FM1 1 40715U 15032A 24263.90921392 .00001941 00000-0 23903-3 0 9995 2 40715 97.7333 139.9943 0005522 359.9102 0.2111 14.84055078495625 DMC 3-FM2 1 40716U 15032B 24263.86415941 .00002172 00000-0 26661-3 0 9990 2 40716 97.7391 141.0835 0007541 0.0402 0.0812 14.84064497495614 DMC 3-FM3 1 40717U 15032C 24263.89457887 .00002150 00000-0 26457-3 0 9998 2 40717 97.7435 142.4333 0008840 355.2717 4.8412 14.83971365495628